SL-8 R/B

Last updated on Fri Sep 19 2025 00:02:14 GMT+0000 (Coordinated Universal Time)

1 21938U 92020B 25261.00736633 -.00000032 00000+0 -49321-4 0 9999 2 21938 82.9260 282.0020 0030256 61.3959 1.9436 13.75518797677393

Satellite not in orbit